Chitose — JD2925 — position and weather

sailwx.info

Track history (hours):
 
Tides and Currents Weather Stations Pressure Air Temp Water Temp Dewpoint Dewpoint Depression Visibility Wind Speed Wind Dir Waves Ship Positions

Chitose

Last reported at 2014-Oct-25 23:34 UTC. Time now 2014-Oct-25 23:36 UTC.
Position N 35°28' E 139°40'.

Length 33 m; draft 3.8 m.

Type: Tug. MMSI: 431000953.

Date/timePositionNaut miles runAvg speedWind from/ knotsBaromVisibWave heightAir tempDewpointWater temp
2014-Oct-25 23:34N 35°28' E 139°40'1 1.1
2014-Oct-25 22:33N 35°27' E 139°41'2 2.4
2014-Oct-25 21:33N 35°27' E 139°39'1 0.0
2014-Oct-24 11:07N 35°27' E 139°39'1 2.4
2014-Oct-24 10:33N 35°26' E 139°40'0 0.1
2014-Oct-24 09:33N 35°26' E 139°40'1 0.9
2014-Oct-24 08:33N 35°27' E 139°39'1 0.9
2014-Oct-24 07:33N 35°27' E 139°41'1 0.9
2014-Oct-24 06:33N 35°27' E 139°39'0 0.0
2014-Oct-24 05:33N 35°27' E 139°39'3 3.0
2014-Oct-24 04:33N 35°26' E 139°43'3 2.7
2014-Oct-24 03:34N 35°28' E 139°40'0 0.2
2014-Oct-24 02:33N 35°28' E 139°41'0 0.0
2014-Oct-24 01:33N 35°28' E 139°41'0 0.0
2014-Oct-24 00:33N 35°28' E 139°41'1 1.2
2014-Oct-23 23:33N 35°27' E 139°41'2 2.2
2014-Oct-23 22:33N 35°28' E 139°39'0 0.4
2014-Oct-23 21:33N 35°27' E 139°39'0 0.0
2014-Oct-23 20:33N 35°27' E 139°39'0 0.0
2014-Oct-23 09:17N 35°28' E 139°39'3 3.9
2014-Oct-23 08:34N 35°26' E 139°42'1 0.6
2014-Oct-23 07:33N 35°27' E 139°43'2 1.8
2014-Oct-23 06:34N 35°26' E 139°41'2 2.1
2014-Oct-23 05:33N 35°27' E 139°39'0 0.0
2014-Oct-23 04:34N 35°27' E 139°39'2 1.7
2014-Oct-23 03:34N 35°27' E 139°41'4 3.7
2014-Oct-23 02:33N 35°29' E 139°45'2 2.3
2014-Oct-23 01:34N 35°27' E 139°43'0 0.3
2014-Oct-23 00:34N 35°27' E 139°43'1 1.2
2014-Oct-22 23:34N 35°28' E 139°41'2 1.6
2014-Oct-22 22:34N 35°27' E 139°43'4 3.7
2014-Oct-22 21:34N 35°27' E 139°39'4 0.3
2014-Oct-22 07:33N 35°25' E 139°42'1 1.1
2014-Oct-22 06:34N 35°24' E 139°41'4 3.7
2014-Oct-22 05:34N 35°27' E 139°39'0 0.0
2014-Oct-22 04:34N 35°27' E 139°39'3 2.8
2014-Oct-22 03:34N 35°26' E 139°42'2 2.4
2014-Oct-22 02:34N 35°28' E 139°39'1 0.5
2014-Oct-22 01:33N 35°27' E 139°39'0 0.0
2014-Oct-22 00:33N 35°27' E 139°39'0 0.0
2014-Oct-21 23:34N 35°27' E 139°39'2 1.6
2014-Oct-21 22:33N 35°27' E 139°40'2 1.6
2014-Oct-21 21:33N 35°27' E 139°39'0 0.0
2014-Oct-21 20:33N 35°27' E 139°39'0 0.0
2014-Oct-21 19:33N 35°27' E 139°39'0 0.0
2014-Oct-21 18:33N 35°27' E 139°39'0 0.0
2014-Oct-21 17:33N 35°27' E 139°39'0 0.0
2014-Oct-21 16:34N 35°27' E 139°39'0 0.0
2014-Oct-21 15:33N 35°27' E 139°39'0 0.0
2014-Oct-21 14:34N 35°27' E 139°39'0 0.0
2014-Oct-21 13:33N 35°27' E 139°39'0 0.0
2014-Oct-21 12:33N 35°27' E 139°39'0 0.0
2014-Oct-21 11:33N 35°27' E 139°39'0 0.0
2014-Oct-21 10:33N 35°27' E 139°39'0 0.0
2014-Oct-21 09:33N 35°27' E 139°39'0 0.0
2014-Oct-21 08:33N 35°27' E 139°39'0 0.0
2014-Oct-21 07:34N 35°27' E 139°39'0 0.0
2014-Oct-21 06:33N 35°27' E 139°39'0 0.1
2014-Oct-21 05:33N 35°27' E 139°39'5 4.8
2014-Oct-21 04:33N 35°30' E 139°44'2 1.9
2014-Oct-21 03:34N 35°29' E 139°42'2 2.1
2014-Oct-21 02:33N 35°30' E 139°44'3 2.6
2014-Oct-21 01:33N 35°28' E 139°42'6 5.6
2014-Oct-21 00:33N 35°28' E 139°49'7 6.6
2014-Oct-20 23:28N 35°28' E 139°58'1011.1
2014-Oct-20 22:33N 35°27' E 139°46'6 5.8
2014-Oct-20 21:34N 35°27' E 139°39'1 0.0
2014-Oct-20 08:33N 35°27' E 139°39'1 1.3
2014-Oct-20 07:33N 35°26' E 139°40'0 0.5
2014-Oct-20 06:33N 35°26' E 139°41'1 0.9
2014-Oct-20 05:33N 35°27' E 139°40'1 1.3
2014-Oct-20 04:33N 35°27' E 139°39'0 0.0
2014-Oct-20 03:33N 35°27' E 139°39'0 0.0
2014-Oct-20 02:33N 35°27' E 139°39'0 0.0
2014-Oct-20 01:33N 35°27' E 139°39'0 0.0
2014-Oct-20 00:33N 35°27' E 139°39'2 2.2
2014-Oct-19 23:33N 35°27' E 139°41'5 5.2
2014-Oct-19 22:32N 35°30' E 139°47'3 3.2
2014-Oct-19 21:33N 35°27' E 139°45'4 3.7
2014-Oct-19 20:33N 35°28' E 139°40'0 0.0
2014-Oct-19 19:33N 35°28' E 139°40'0 0.0
2014-Oct-19 18:33N 35°28' E 139°40'0 0.0
2014-Oct-19 17:33N 35°28' E 139°40'0 0.0
2014-Oct-19 16:33N 35°28' E 139°40'0 0.0
2014-Oct-19 15:33N 35°28' E 139°40'0 0.0
2014-Oct-19 14:33N 35°28' E 139°40'0 0.0
2014-Oct-19 13:33N 35°28' E 139°40'0 0.0
2014-Oct-19 12:33N 35°28' E 139°40'0 0.0
2014-Oct-19 11:33N 35°28' E 139°40'1 0.8
2014-Oct-19 10:33N 35°27' E 139°41'3 2.8
2014-Oct-19 09:33N 35°28' E 139°44'1 1.2
2014-Oct-19 08:33N 35°28' E 139°42'2 2.2
2014-Oct-19 07:33N 35°27' E 139°40'2 1.6
2014-Oct-19 06:33N 35°27' E 139°39'0 0.0
2014-Oct-19 05:33N 35°27' E 139°39'0 0.0
2014-Oct-19 04:33N 35°27' E 139°39'0 0.0
2014-Oct-19 03:33N 35°27' E 139°39'0 0.0
2014-Oct-19 02:33N 35°27' E 139°39'0 0.0
2014-Oct-19 01:33N 35°27' E 139°39'0 0.0
2014-Oct-19 00:33N 35°27' E 139°39'0 0.0
2014-Oct-18 23:33N 35°27' E 139°39'0 0.0
2014-Oct-18 22:33N 35°27' E 139°39'0 0.0
2014-Oct-18 21:33N 35°27' E 139°39'0 0.0
2014-Oct-18 20:33N 35°27' E 139°39'0 0.0
2014-Oct-18 19:33N 35°27' E 139°39'0 0.0
2014-Oct-18 18:33N 35°27' E 139°39'0 0.0
2014-Oct-18 17:33N 35°27' E 139°39'0 0.0
2014-Oct-18 16:33N 35°27' E 139°39'0 0.0
2014-Oct-18 15:33N 35°27' E 139°39'0 0.0
2014-Oct-18 14:33N 35°27' E 139°39'0 0.0
2014-Oct-18 13:33N 35°27' E 139°39'0 0.0
2014-Oct-18 12:33N 35°27' E 139°39'0 0.0
2014-Oct-18 11:33N 35°27' E 139°39'0 0.0
2014-Oct-18 10:33N 35°27' E 139°39'0 0.0
2014-Oct-18 09:33N 35°27' E 139°39'0 0.0
2014-Oct-18 08:33N 35°27' E 139°39'0 0.0
2014-Oct-18 07:33N 35°27' E 139°39'0 0.3
2014-Oct-18 06:33N 35°28' E 139°39'2 1.9
2014-Oct-18 05:34N 35°27' E 139°41'2 2.0
2014-Oct-18 04:33N 35°27' E 139°39'0 0.0
2014-Oct-18 03:33N 35°27' E 139°39'0 0.0
2014-Oct-18 02:33N 35°27' E 139°39'2 2.1
2014-Oct-18 01:34N 35°27' E 139°41'1 1.2
2014-Oct-18 00:33N 35°26' E 139°42'0 0.0
2014-Oct-17 23:33N 35°26' E 139°42'0 0.0
2014-Oct-17 22:33N 35°26' E 139°42'2 1.8
2014-Oct-17 21:34N 35°27' E 139°40'1 1.5
2014-Oct-17 20:33N 35°27' E 139°39'2 0.1
2014-Oct-17 08:33N 35°27' E 139°41'1 0.9
2014-Oct-17 07:33N 35°28' E 139°41'1 1.2
2014-Oct-17 06:33N 35°28' E 139°42'2 1.9
2014-Oct-17 05:33N 35°29' E 139°43'1 1.5
2014-Oct-17 04:33N 35°28' E 139°41'3 2.6
2014-Oct-17 03:33N 35°27' E 139°39'0 0.0
2014-Oct-17 02:33N 35°27' E 139°39'0 0.0
2014-Oct-17 01:33N 35°27' E 139°39'0 0.0
2014-Oct-17 00:33N 35°27' E 139°39'1 1.0
2014-Oct-16 23:33N 35°28' E 139°40'3 2.9
2014-Oct-16 22:33N 35°27' E 139°43'2 2.4
2014-Oct-16 21:33N 35°28' E 139°41'2 1.7
2014-Oct-16 20:33N 35°27' E 139°39'0 0.0
2014-Oct-16 01:31N 35°27' E 139°39'4 4.0
2014-Oct-16 00:33N 35°28' E 139°43'  
Track history (hours):
 
Tides and Currents Weather Stations Pressure Air Temp Water Temp Dewpoint Dewpoint Depression Visibility Wind Speed Wind Dir Waves Ship Positions

Chitose

Last reported at 2014-Oct-25 23:34 UTC. Time now 2014-Oct-25 23:36 UTC.
Position N 35°28' E 139°40'.

Length 33 m; draft 3.8 m.

Type: Tug. MMSI: 431000953.

Date/timePositionNaut miles runAvg speedWind from/ knotsBaromVisibWave heightAir tempDewpointWater temp
2014-Oct-25 23:34N 35°28' E 139°40'1 1.1
2014-Oct-25 22:33N 35°27' E 139°41'2 2.4
2014-Oct-25 21:33N 35°27' E 139°39'1 0.0
2014-Oct-24 11:07N 35°27' E 139°39'1 2.4
2014-Oct-24 10:33N 35°26' E 139°40'0 0.1
2014-Oct-24 09:33N 35°26' E 139°40'1 0.9
2014-Oct-24 08:33N 35°27' E 139°39'1 0.9
2014-Oct-24 07:33N 35°27' E 139°41'1 0.9
2014-Oct-24 06:33N 35°27' E 139°39'0 0.0
2014-Oct-24 05:33N 35°27' E 139°39'3 3.0
2014-Oct-24 04:33N 35°26' E 139°43'3 2.7
2014-Oct-24 03:34N 35°28' E 139°40'0 0.2
2014-Oct-24 02:33N 35°28' E 139°41'0 0.0
2014-Oct-24 01:33N 35°28' E 139°41'0 0.0
2014-Oct-24 00:33N 35°28' E 139°41'1 1.2
2014-Oct-23 23:33N 35°27' E 139°41'2 2.2
2014-Oct-23 22:33N 35°28' E 139°39'0 0.4
2014-Oct-23 21:33N 35°27' E 139°39'0 0.0
2014-Oct-23 20:33N 35°27' E 139°39'0 0.0
2014-Oct-23 09:17N 35°28' E 139°39'3 3.9
2014-Oct-23 08:34N 35°26' E 139°42'1 0.6
2014-Oct-23 07:33N 35°27' E 139°43'2 1.8
2014-Oct-23 06:34N 35°26' E 139°41'2 2.1
2014-Oct-23 05:33N 35°27' E 139°39'0 0.0
2014-Oct-23 04:34N 35°27' E 139°39'2 1.7
2014-Oct-23 03:34N 35°27' E 139°41'4 3.7
2014-Oct-23 02:33N 35°29' E 139°45'2 2.3
2014-Oct-23 01:34N 35°27' E 139°43'0 0.3
2014-Oct-23 00:34N 35°27' E 139°43'1 1.2
2014-Oct-22 23:34N 35°28' E 139°41'2 1.6
2014-Oct-22 22:34N 35°27' E 139°43'4 3.7
2014-Oct-22 21:34N 35°27' E 139°39'4 0.3
2014-Oct-22 07:33N 35°25' E 139°42'1 1.1
2014-Oct-22 06:34N 35°24' E 139°41'4 3.7
2014-Oct-22 05:34N 35°27' E 139°39'0 0.0
2014-Oct-22 04:34N 35°27' E 139°39'3 2.8
2014-Oct-22 03:34N 35°26' E 139°42'2 2.4
2014-Oct-22 02:34N 35°28' E 139°39'1 0.5
2014-Oct-22 01:33N 35°27' E 139°39'0 0.0
2014-Oct-22 00:33N 35°27' E 139°39'0 0.0
2014-Oct-21 23:34N 35°27' E 139°39'2 1.6
2014-Oct-21 22:33N 35°27' E 139°40'2 1.6
2014-Oct-21 21:33N 35°27' E 139°39'0 0.0
2014-Oct-21 20:33N 35°27' E 139°39'0 0.0
2014-Oct-21 19:33N 35°27' E 139°39'0 0.0
2014-Oct-21 18:33N 35°27' E 139°39'0 0.0
2014-Oct-21 17:33N 35°27' E 139°39'0 0.0
2014-Oct-21 16:34N 35°27' E 139°39'0 0.0
2014-Oct-21 15:33N 35°27' E 139°39'0 0.0
2014-Oct-21 14:34N 35°27' E 139°39'0 0.0
2014-Oct-21 13:33N 35°27' E 139°39'0 0.0
2014-Oct-21 12:33N 35°27' E 139°39'0 0.0
2014-Oct-21 11:33N 35°27' E 139°39'0 0.0
2014-Oct-21 10:33N 35°27' E 139°39'0 0.0
2014-Oct-21 09:33N 35°27' E 139°39'0 0.0
2014-Oct-21 08:33N 35°27' E 139°39'0 0.0
2014-Oct-21 07:34N 35°27' E 139°39'0 0.0
2014-Oct-21 06:33N 35°27' E 139°39'0 0.1
2014-Oct-21 05:33N 35°27' E 139°39'5 4.8
2014-Oct-21 04:33N 35°30' E 139°44'2 1.9
2014-Oct-21 03:34N 35°29' E 139°42'2 2.1
2014-Oct-21 02:33N 35°30' E 139°44'3 2.6
2014-Oct-21 01:33N 35°28' E 139°42'6 5.6
2014-Oct-21 00:33N 35°28' E 139°49'7 6.6
2014-Oct-20 23:28N 35°28' E 139°58'1011.1
2014-Oct-20 22:33N 35°27' E 139°46'6 5.8
2014-Oct-20 21:34N 35°27' E 139°39'1 0.0
2014-Oct-20 08:33N 35°27' E 139°39'1 1.3
2014-Oct-20 07:33N 35°26' E 139°40'0 0.5
2014-Oct-20 06:33N 35°26' E 139°41'1 0.9
2014-Oct-20 05:33N 35°27' E 139°40'1 1.3
2014-Oct-20 04:33N 35°27' E 139°39'0 0.0
2014-Oct-20 03:33N 35°27' E 139°39'0 0.0
2014-Oct-20 02:33N 35°27' E 139°39'0 0.0
2014-Oct-20 01:33N 35°27' E 139°39'0 0.0
2014-Oct-20 00:33N 35°27' E 139°39'2 2.2
2014-Oct-19 23:33N 35°27' E 139°41'5 5.2
2014-Oct-19 22:32N 35°30' E 139°47'3 3.2
2014-Oct-19 21:33N 35°27' E 139°45'4 3.7
2014-Oct-19 20:33N 35°28' E 139°40'0 0.0
2014-Oct-19 19:33N 35°28' E 139°40'0 0.0
2014-Oct-19 18:33N 35°28' E 139°40'0 0.0
2014-Oct-19 17:33N 35°28' E 139°40'0 0.0
2014-Oct-19 16:33N 35°28' E 139°40'0 0.0
2014-Oct-19 15:33N 35°28' E 139°40'0 0.0
2014-Oct-19 14:33N 35°28' E 139°40'0 0.0
2014-Oct-19 13:33N 35°28' E 139°40'0 0.0
2014-Oct-19 12:33N 35°28' E 139°40'0 0.0
2014-Oct-19 11:33N 35°28' E 139°40'1 0.8
2014-Oct-19 10:33N 35°27' E 139°41'3 2.8
2014-Oct-19 09:33N 35°28' E 139°44'1 1.2
2014-Oct-19 08:33N 35°28' E 139°42'2 2.2
2014-Oct-19 07:33N 35°27' E 139°40'2 1.6
2014-Oct-19 06:33N 35°27' E 139°39'0 0.0
2014-Oct-19 05:33N 35°27' E 139°39'0 0.0
2014-Oct-19 04:33N 35°27' E 139°39'0 0.0
2014-Oct-19 03:33N 35°27' E 139°39'0 0.0
2014-Oct-19 02:33N 35°27' E 139°39'0 0.0
2014-Oct-19 01:33N 35°27' E 139°39'0 0.0
2014-Oct-19 00:33N 35°27' E 139°39'0 0.0
2014-Oct-18 23:33N 35°27' E 139°39'0 0.0
2014-Oct-18 22:33N 35°27' E 139°39'0 0.0
2014-Oct-18 21:33N 35°27' E 139°39'0 0.0
2014-Oct-18 20:33N 35°27' E 139°39'0 0.0
2014-Oct-18 19:33N 35°27' E 139°39'0 0.0
2014-Oct-18 18:33N 35°27' E 139°39'0 0.0
2014-Oct-18 17:33N 35°27' E 139°39'0 0.0
2014-Oct-18 16:33N 35°27' E 139°39'0 0.0
2014-Oct-18 15:33N 35°27' E 139°39'0 0.0
2014-Oct-18 14:33N 35°27' E 139°39'0 0.0
2014-Oct-18 13:33N 35°27' E 139°39'0 0.0
2014-Oct-18 12:33N 35°27' E 139°39'0 0.0
2014-Oct-18 11:33N 35°27' E 139°39'0 0.0
2014-Oct-18 10:33N 35°27' E 139°39'0 0.0
2014-Oct-18 09:33N 35°27' E 139°39'0 0.0
2014-Oct-18 08:33N 35°27' E 139°39'0 0.0
2014-Oct-18 07:33N 35°27' E 139°39'0 0.3
2014-Oct-18 06:33N 35°28' E 139°39'2 1.9
2014-Oct-18 05:34N 35°27' E 139°41'2 2.0
2014-Oct-18 04:33N 35°27' E 139°39'0 0.0
2014-Oct-18 03:33N 35°27' E 139°39'0 0.0
2014-Oct-18 02:33N 35°27' E 139°39'2 2.1
2014-Oct-18 01:34N 35°27' E 139°41'1 1.2
2014-Oct-18 00:33N 35°26' E 139°42'0 0.0
2014-Oct-17 23:33N 35°26' E 139°42'0 0.0
2014-Oct-17 22:33N 35°26' E 139°42'2 1.8
2014-Oct-17 21:34N 35°27' E 139°40'1 1.5
2014-Oct-17 20:33N 35°27' E 139°39'2 0.1
2014-Oct-17 08:33N 35°27' E 139°41'1 0.9
2014-Oct-17 07:33N 35°28' E 139°41'1 1.2
2014-Oct-17 06:33N 35°28' E 139°42'2 1.9
2014-Oct-17 05:33N 35°29' E 139°43'1 1.5
2014-Oct-17 04:33N 35°28' E 139°41'3 2.6
2014-Oct-17 03:33N 35°27' E 139°39'0 0.0
2014-Oct-17 02:33N 35°27' E 139°39'0 0.0
2014-Oct-17 01:33N 35°27' E 139°39'0 0.0
2014-Oct-17 00:33N 35°27' E 139°39'1 1.0
2014-Oct-16 23:33N 35°28' E 139°40'3 2.9
2014-Oct-16 22:33N 35°27' E 139°43'2 2.4
2014-Oct-16 21:33N 35°28' E 139°41'2 1.7
2014-Oct-16 20:33N 35°27' E 139°39'0 0.0
2014-Oct-16 01:31N 35°27' E 139°39'4 4.0
2014-Oct-16 00:33N 35°28' E 139°43'  

Dump ship's entire track history